Location: Unspecified
(0.0000°N, 0.0000°E)
Time: 15:53:52
(UTC+00:00)

COSMOS 1275 DEB - Pass Details

Date: 20 February 2026
Orbit: 902 x 1038 km, 83.0° (Epoch: 19 November)

Event Time Altitude Azimuth Distance (km) Brightness Sun altitude
Rises 04:30:14 0° 179° (S) 3,729 ? -25.4°
Reaches altitude 10° 04:32:48 10° 176° (S) 2,764 ? -24.7°
Maximum altitude 04:39:07 71° 93° (E) 1,030 ? -23.2°
Drops below altitude 10° 04:45:13 10° 10° (N) 2,676 ? -21.7°
Sets 04:47:41 0° 8° (N) 3,602 ? -21.1°
